GW1348 Weather Reports


Display with metric or nautical units.
time (UTC)temp
F
wind
direction
speed
MPH
gust
MPH
rain 1hr
in
rain 24hr
in
rain mn
in
humidity
%
barometer
mb
20260507033043 33 185 1.0 4.0 0.00 0.00 0.00 86 1013.2
20260507032533 32 146 1.0 3.0 0.00 0.00 0.00 87 1013.2
20260507032032 32 141 1.0 3.0 0.00 0.00 0.00 88 1013.2
20260507031548 32 142 1.0 3.0 0.00 0.00 0.00 89 1013.3
20260507031033 31 254 0.0 3.0 0.00 0.00 0.00 90 1013.1
20260507030533 31 13 1.0 3.0 0.00 0.00 0.00 90 1013.2
20260507030042 31 139 1.0 4.0 0.00 0.00 0.00 90 1013.2
20260507025530 31 179 1.0 4.0 0.00 0.00 0.00 90 1013.1
20260507025035 31 0 0.0 3.0 0.00 0.00 0.00 90 1013.2
20260507024552 31 132 1.0 4.0 0.00 0.00 0.00 90 1013.2
20260507024034 31 127 1.0 4.0 0.00 0.00 0.00 90 1013.0
20260507023533 31 138 1.0 4.0 0.00 0.00 0.00 90 1013.1
20260507023052 31 212 0.0 4.0 0.00 0.00 0.00 90 1013.1
20260507022531 31 167 1.0 4.0 0.00 0.00 0.00 90 1013.1
20260507022035 31 136 1.0 3.0 0.00 0.00 0.00 91 1013.1
20260507021543 31 129 1.0 4.0 0.00 0.00 0.00 91 1013.0
20260507021033 31 0 1.0 4.0 0.00 0.00 0.00 91 1013.0
20260507020531 31 0 1.0 4.0 0.00 0.00 0.00 92 1013.0
20260507020057 31 169 1.0 4.0 0.00 0.00 0.00 92 1013.0
20260507015531 31 157 1.0 5.0 0.00 0.00 0.00 92 1013.1
20260507015031 31 164 1.0 5.0 0.00 0.00 0.00 92 1013.1
20260507014541 31 147 1.0 3.0 0.00 0.00 0.00 92 1013.1
20260507014031 31 245 0.0 3.0 0.00 0.00 0.00 92 1013.1
20260507013530 31 186 1.0 3.0 0.00 0.00 0.00 91 1013.1
20260507013047 31 143 1.0 3.0 0.00 0.00 0.00 92 1013.0
20260507012535 31 151 1.0 2.0 0.00 0.00 0.00 92 1013.0
20260507012031 31 151 1.0 3.0 0.00 0.00 0.00 92 1012.9
20260507011547 31 137 0.0 4.0 0.00 0.00 0.00 91 1012.8
20260507011031 31 141 1.0 4.0 0.00 0.00 0.00 91 1012.9
20260507010530 31 154 0.0 3.0 0.00 0.00 0.00 91 1012.9
20260507010044 32 138 1.0 3.0 0.00 0.00 0.00 91 1012.9
20260507005532 32 141 1.0 3.0 0.00 0.00 0.00 91 1013.0
20260507005031 32 128 0.0 6.0 0.00 0.00 0.00 91 1012.9
20260507004544 32 149 1.0 6.0 0.00 0.00 0.00 91 1012.9
20260507004031 32 160 1.0 5.0 0.00 0.00 0.00 91 1012.9
20260507003532 32 159 2.0 5.0 0.00 0.00 0.00 92 1012.9
20260507003049 32 166 1.0 4.0 0.00 0.00 0.00 92 1012.9
20260507002530 32 152 1.0 4.0 0.00 0.00 0.00 92 1012.8
20260507002031 32 146 0.0 2.0 0.00 0.00 0.00 92 1012.8
20260507001606 32 224 0.0 3.0 0.00 0.00 0.00 92 1012.8
20260507001035 32 0 0.0 3.0 0.00 0.00 0.00 92 1012.8
20260507000530 32 140 0.0 1.0 0.00 0.00 0.00 92 1012.8
20260507000043 32 0 0.0 2.0 0.00 0.00 0.00 92 1012.8
20260506235534 32 0 0.0 2.0 0.00 0.00 0.00 92 1012.8
20260506235031 32 0 0.0 3.0 0.00 0.00 0.00 92 1012.8
20260506234550 32 0 0.0 3.0 0.00 0.00 0.00 92 1012.8
20260506234032 32 0 0.0 4.0 0.00 0.00 0.00 92 1012.7
20260506233532 32 0 0.0 4.0 0.00 0.00 0.00 93 1012.7
20260506233043 32 151 1.0 5.0 0.00 0.00 0.00 93 1012.6
20260506232531 32 248 0.0 5.0 0.00 0.00 0.00 92 1012.6
20260506232031 32 148 0.0 4.0 0.00 0.00 0.00 93 1012.5
20260506231543 31 249 0.0 4.0 0.00 0.00 0.00 93 1012.5
20260506231029 31 201 0.0 2.0 0.00 0.00 0.00 92 1012.4
20260506230532 31 131 1.0 2.0 0.00 0.00 0.00 93 1012.5
20260506230053 31 200 0.0 3.0 0.00 0.00 0.00 93 1012.6
20260506225530 31 181 0.0 3.0 0.00 0.00 0.00 92 1012.7
20260506225029 31 150 1.0 2.0 0.00 0.00 0.00 92 1012.7
20260506224544 32 0 0.0 3.0 0.00 0.00 0.00 92 1012.7
20260506224029 32 0 0.0 3.0 0.00 0.00 0.00 92 1012.6
20260506223529 32 130 0.0 3.0 0.00 0.00 0.00 92 1012.7
20260506223041 32 209 1.0 2.0 0.00 0.00 0.00 92 1012.6
20260506222532 32 203 0.0 4.0 0.00 0.00 0.00 91 1012.6
20260506222030 32 236 1.0 4.0 0.00 0.00 0.00 92 1012.7
20260506221551 32 165 1.0 3.0 0.00 0.00 0.00 91 1012.7
20260506221031 32 209 0.0 3.0 0.00 0.00 0.00 91 1012.6
20260506220533 32 158 0.0 1.0 0.00 0.00 0.00 91 1012.6
20260506220043 33 162 0.0 0.0 0.00 0.00 0.00 91 1012.7
20260506215535 33 0 0.0 3.0 0.00 0.00 0.00 90 1012.7
20260506215030 33 0 0.0 3.0 0.00 0.00 0.00 90 1012.7
20260506214541 33 148 0.0 3.0 0.00 0.00 0.00 90 1012.6
20260506214033 34 0 0.0 3.0 0.00 0.00 0.00 90 1012.7
20260506213531 34 151 0.0 3.0 0.00 0.00 0.00 90 1012.7
20260506213040 34 0 0.0 3.0 0.00 0.00 0.00 90 1012.6
20260506212530 34 157 1.0 3.0 0.00 0.00 0.00 90 1012.6
20260506212032 34 113 1.0 3.0 0.00 0.00 0.00 90 1012.5
20260506210532 34 147 1.0 5.0 0.00 0.00 0.00 90 1012.4
20260506210054 34 146 1.0 3.0 0.00 0.00 0.00 89 1012.4
20260506205531 34 153 1.0 3.0 0.00 0.00 0.00 89 1012.2
20260506205030 34 192 1.0 3.0 0.00 0.00 0.00 89 1012.2
20260506204547 34 221 0.0 4.0 0.00 0.00 0.00 88 1012.2
20260506204030 34 285 0.0 4.0 0.00 0.00 0.00 88 1012.3
20260506203530 34 177 2.0 4.0 0.00 0.00 0.00 88 1012.3
20260506203043 34 203 1.0 4.0 0.00 0.00 0.00 88 1012.2
20260506202534 34 201 1.0 5.0 0.00 0.00 0.00 88 1012.3
20260506202032 35 182 1.0 5.0 0.00 0.00 0.00 88 1012.3
20260506201541 35 146 1.0 5.0 0.00 0.00 0.00 87 1012.3
20260506201032 35 198 1.0 4.0 0.00 0.00 0.00 87 1012.3
20260506200530 35 146 1.0 4.0 0.00 0.00 0.00 87 1012.3
20260506200040 35 134 0.0 3.0 0.00 0.00 0.00 87 1012.3
20260506195530 35 212 1.0 3.0 0.00 0.00 0.00 87 1012.3
20260506195030 35 143 0.0 3.0 0.00 0.00 0.00 86 1012.2
20260506194545 36 0 0.0 4.0 0.00 0.00 0.00 86 1012.1
20260506194031 36 0 1.0 5.0 0.00 0.00 0.00 85 1012.2
20260506193531 36 165 1.0 5.0 0.00 0.00 0.00 85 1012.3
20260506193048 36 159 0.0 3.0 0.00 0.00 0.00 85 1012.2
20260506192533 36 163 1.0 4.0 0.00 0.00 0.00 84 1012.2
20260506192028 36 0 1.0 4.0 0.00 0.00 0.00 84 1012.3
20260506191542 37 161 2.0 4.0 0.00 0.00 0.00 84 1012.1
20260506191032 37 207 1.0 3.0 0.00 0.00 0.00 83 1012.2
20260506190532 37 152 1.0 3.0 0.00 0.00 0.00 82 1012.2
20260506190040 37 218 1.0 3.0 0.00 0.00 0.00 81 1012.1
20260506185531 38 117 1.0 3.0 0.00 0.00 0.00 81 1012.1
20260506185031 38 160 0.0 3.0 0.00 0.00 0.00 80 1011.9
20260506184549 38 160 0.0 4.0 0.00 0.00 0.00 80 1011.9
20260506184033 38 146 1.0 5.0 0.00 0.00 0.00 80 1011.8
20260506183530 38 183 1.0 5.0 0.00 0.00 0.00 80 1011.8
20260506183045 39 119 2.0 5.0 0.00 0.00 0.00 80 1011.8
20260506182530 39 64 0.0 3.0 0.00 0.00 0.00 79 1011.8
20260506182030 39 221 0.0 3.0 0.00 0.00 0.00 79 1011.7
20260506181549 39 169 0.0 3.0 0.00 0.00 0.00 79 1011.5
20260506181033 39 0 0.0 3.0 0.00 0.00 0.00 80 1011.5
20260506180533 39 0 0.0 7.0 0.00 0.00 0.00 80 1011.5
20260506180040 39 153 2.0 9.0 0.00 0.00 0.00 80 1011.4
20260506175533 39 165 2.0 9.0 0.00 0.00 0.00 79 1011.4
20260506175031 40 228 2.0 9.0 0.00 0.00 0.00 76 1011.5
20260506174541 41 141 2.0 6.0 0.00 0.00 0.00 73 1011.5
20260506174031 42 166 1.0 5.0 0.00 0.00 0.00 64 1011.5
20260506173530 42 175 0.0 5.0 0.00 0.00 0.00 63 1011.3
20260506173046 42 111 2.0 5.0 0.00 0.00 0.00 63 1011.3
20260506172530 42 355 0.0 4.0 0.00 0.00 0.00 63 1011.2
20260506172030 42 127 1.0 4.0 0.00 0.00 0.00 63 1011.2
20260506171545 42 151 2.0 5.0 0.00 0.00 0.00 64 1011.1
20260506171030 42 84 1.0 5.0 0.00 0.00 0.00 67 1011.0
20260506170531 43 229 1.0 3.0 0.00 0.00 0.00 67 1010.8
20260506170052 42 0 0.0 3.0 0.00 0.00 0.00 69 1010.8
20260506165532 42 155 1.0 3.0 0.00 0.01 0.00 68 1010.8
20260506165030 42 0 1.0 11.0 0.00 0.01 0.00 68 1010.8
20260506164554 42 134 3.0 11.0 0.00 0.01 0.00 67 1010.8
20260506164031 42 162 2.0 9.0 0.00 0.01 0.00 67 1010.8
20260506163530 42 97 3.0 9.0 0.00 0.01 0.00 66 1010.9
20260506163045 42 49 2.0 7.0 0.00 0.01 0.00 67 1011.0
20260506162530 42 108 2.0 5.0 0.00 0.01 0.00 66 1011.0
20260506162031 42 302 1.0 7.0 0.00 0.01 0.00 66 1010.9
20260506161540 42 0 1.0 7.0 0.00 0.01 0.00 66 1011.0
20260506161029 42 0 1.0 9.0 0.00 0.01 0.00 66 1011.0
20260506160531 43 41 2.0 9.0 0.00 0.01 0.00 64 1011.0
20260506160055 44 307 2.0 6.0 0.00 0.01 0.00 64 1011.0
20260506155532 44 345 1.0 6.0 0.00 0.01 0.00 65 1011.0
20260506155030 43 288 1.0 8.0 0.00 0.01 0.00 64 1010.9
20260506154544 44 155 1.0 8.0 0.00 0.01 0.00 63 1011.0
20260506154030 44 229 2.0 6.0 0.00 0.01 0.00 62 1010.9
20260506153530 45 120 2.0 6.0 0.00 0.01 0.00 62 1011.0
20260506153043 45 312 2.0 5.0 0.00 0.01 0.00 60 1010.9
20260506152530 45 303 1.0 7.0 0.00 0.01 0.00 59 1010.9
20260506152029 45 5 1.0 7.0 0.00 0.01 0.00 59 1011.0
20260506151544 45 213 2.0 7.0 0.00 0.01 0.00 59 1010.9
20260506151032 46 77 1.0 5.0 0.00 0.01 0.00 57 1010.9
20260506150530 46 0 0.0 4.0 0.00 0.01 0.00 59 1010.8
20260506150049 46 323 1.0 8.0 0.00 0.01 0.00 59 1011.0
20260506145530 45 0 1.0 8.0 0.00 0.02 0.00 61 1011.0
20260506145030 45 314 1.0 5.0 0.00 0.02 0.00 61 1011.0
20260506144542 45 44 1.0 5.0 0.00 0.02 0.00 61 1010.9
20260506144028 45 128 1.0 5.0 0.00 0.02 0.00 61 1011.0
20260506143531 45 337 2.0 5.0 0.00 0.02 0.00 61 1010.9
20260506143042 45 132 1.0 5.0 0.00 0.02 0.00 65 1010.9
20260506142530 45 212 2.0 5.0 0.00 0.02 0.00 65 1011.0
20260506142030 45 96 1.0 6.0 0.00 0.02 0.00 68 1010.9
20260506141544 44 336 1.0 6.0 0.00 0.02 0.00 66 1010.9
20260506141030 43 0 2.0 5.0 0.00 0.02 0.00 67 1011.0
20260506140533 43 30 1.0 5.0 0.00 0.02 0.00 70 1011.1
20260506140041 42 70 0.0 3.0 0.00 0.02 0.00 75 1011.2
20260506135529 41 53 0.0 3.0 0.00 0.02 0.00 78 1011.1
20260506135033 41 75 1.0 3.0 0.00 0.02 0.00 78 1011.1
20260506134545 41 0 1.0 6.0 0.00 0.02 0.00 77 1011.2
20260506134030 41 174 0.0 6.0 0.00 0.02 0.00 75 1011.3
20260506133530 42 191 1.0 5.0 0.00 0.02 0.00 73 1011.2
20260506133056 43 120 1.0 5.0 0.00 0.02 0.00 71 1011.2
20260506132532 43 192 1.0 3.0 0.00 0.02 0.00 70 1011.0
20260506132030 42 63 0.0 4.0 0.00 0.02 0.00 69 1011.0
20260506131542 43 195 1.0 4.0 0.00 0.02 0.00 69 1010.9
20260506131030 43 236 1.0 4.0 0.00 0.02 0.00 68 1010.9
20260506130533 44 45 1.0 5.0 0.00 0.02 0.00 68 1010.9
20260506130041 44 55 1.0 5.0 0.00 0.02 0.00 69 1010.9
20260506125531 44 98 2.0 4.0 0.00 0.02 0.00 70 1011.0
20260506125030 43 32 1.0 4.0 0.00 0.02 0.00 72 1010.9
20260506124541 43 131 0.0 3.0 0.00 0.02 0.00 72 1010.8
20260506124029 43 0 0.0 5.0 0.00 0.02 0.00 70 1010.9
20260506123531 43 148 1.0 5.0 0.00 0.02 0.00 70 1010.8
20260506123044 43 330 1.0 6.0 0.00 0.02 0.00 68 1010.9
20260506122530 44 182 1.0 6.0 0.00 0.02 0.00 66 1010.8
20260506122030 44 79 1.0 6.0 0.00 0.02 0.00 63 1010.8
20260506121553 44 311 1.0 3.0 0.00 0.02 0.00 58 1010.6
20260506121030 44 223 1.0 8.0 0.00 0.02 0.00 57 1010.7
20260506120530 44 23 2.0 8.0 0.00 0.02 0.00 56 1010.7
20260506120056 45 15 0.0 8.0 0.00 0.02 0.00 58 1010.7
20260506115531 45 75 3.0 8.0 0.00 0.03 0.00 56 1010.6
20260506115030 45 314 2.0 7.0 0.00 0.03 0.00 57 1010.6
20260506114547 44 331 3.0 7.0 0.00 0.03 0.00 56 1010.5
20260506114029 45 114 1.0 6.0 0.00 0.03 0.00 55 1010.5
20260506113529 45 53 2.0 6.0 0.00 0.03 0.00 55 1010.4
20260506113041 46 46 2.0 6.0 0.00 0.03 0.00 55 1010.4
20260506112530 46 118 1.0 8.0 0.00 0.03 0.00 54 1010.3
20260506112032 47 65 2.0 8.0 0.00 0.03 0.00 53 1010.3
20260506111547 46 131 4.0 8.0 0.00 0.03 0.00 55 1010.4
20260506111032 46 207 1.0 5.0 0.00 0.03 0.00 56 1010.3
20260506110532 44 176 1.0 9.0 0.00 0.03 0.00 57 1010.2
20260506110057 44 83 3.0 9.0 0.00 0.03 0.00 56 1010.3
20260506105534 44 0 2.0 8.0 0.00 0.03 0.00 53 1010.3
20260506105031 44 92 2.0 9.0 0.00 0.03 0.00 54 1010.3
20260506104557 43 68 3.0 9.0 0.00 0.03 0.00 56 1010.4
20260506104032 43 96 4.0 9.0 0.00 0.03 0.00 54 1010.3
20260506103530 43 153 1.0 8.0 0.00 0.03 0.00 54 1010.4
20260506103046 43 137 2.0 8.0 0.00 0.03 0.00 53 1010.4
20260506102533 44 155 2.0 10.0 0.00 0.03 0.00 50 1010.3
20260506102034 45 343 2.0 10.0 0.00 0.03 0.00 51 1010.2
20260506101541 44 151 2.0 8.0 0.00 0.03 0.00 51 1010.3
20260506101029 45 106 2.0 8.0 0.00 0.03 0.00 50 1010.2
20260506100533 44 135 3.0 8.0 0.00 0.03 0.00 53 1010.3
20260506100048 43 344 3.0 7.0 0.00 0.03 0.00 53 1010.4
20260506095530 43 125 2.0 7.0 0.00 0.04 0.00 53 1010.2
20260506095030 43 128 2.0 7.0 0.00 0.04 0.00 53 1010.2
20260506094543 43 2 1.0 7.0 0.00 0.04 0.00 55 1010.3
20260506094029 43 133 1.0 7.0 0.00 0.04 0.00 54 1010.2
20260506093533 43 159 2.0 5.0 0.00 0.04 0.00 54 1010.3
20260506093044 42 0 0.0 7.0 0.00 0.04 0.00 55 1010.3
20260506092530 42 137 1.0 7.0 0.00 0.04 0.00 54 1010.2
20260506092030 42 131 2.0 7.0 0.00 0.04 0.00 54 1010.1
20260506091541 43 78 0.0 11.0 0.00 0.04 0.00 56 1010.1
20260506091029 43 131 3.0 11.0 0.00 0.04 0.00 55 1010.2
20260506090532 44 148 2.0 10.0 0.00 0.04 0.00 54 1010.2
20260506090042 44 89 4.0 10.0 0.00 0.04 0.00 54 1010.3
20260506085532 43 140 2.0 7.0 0.00 0.05 0.00 55 1010.2
20260506085030 43 138 2.0 7.0 0.00 0.05 0.00 56 1010.2
20260506084612 43 105 2.0 6.0 0.00 0.05 0.00 59 1010.2
20260506084030 42 176 2.0 6.0 0.00 0.05 0.00 59 1010.2
20260506083530 41 158 1.0 9.0 0.00 0.05 0.00 60 1010.2
20260506083045 41 80 3.0 10.0 0.00 0.05 0.00 60 1010.2
20260506082530 41 229 3.0 12.0 0.00 0.05 0.00 61 1010.2
20260506082030 40 181 4.0 12.0 0.00 0.05 0.00 60 1010.2
20260506081554 41 138 3.0 7.0 0.00 0.05 0.00 59 1010.3
20260506081034 41 94 2.0 6.0 0.00 0.05 0.00 60 1010.2
20260506080530 40 113 1.0 5.0 0.00 0.05 0.00 61 1010.2
20260506073529 40 134 0.0 4.0 0.00 0.11 0.00 67 1010.2
20260506073044 39 141 1.0 4.0 0.00 0.11 0.00 65 1010.2
20260506072529 38 150 2.0 4.0 0.00 0.11 0.00 66 1010.2
20260506072031 37 0 1.0 3.0 0.00 0.11 0.00 68 1010.2
20260506071548 37 113 1.0 4.0 0.00 0.11 0.00 67 1010.2
20260506071031 37 158 1.0 4.0 0.00 0.11 0.00 68 1010.2
20260506070530 37 141 2.0 4.0 0.00 0.11 0.00 69 1010.2
20260506062030 36 119 2.0 6.0 0.00 0.13 0.00 71 1010.0
20260506061548 37 144 2.0 8.0 0.00 0.13 0.00 71 1010.0
20260506061030 36 103 3.0 9.0 0.00 0.13 0.00 72 1010.0
20260506060531 36 144 4.0 9.0 0.00 0.13 0.00 72 1009.9
20260506051029 33 170 1.0 6.0 0.00 0.13 0.00 82 1009.9
20260506050529 33 199 2.0 5.0 0.00 0.13 0.00 82 1009.8
20260506045029 33 150 1.0 6.0 0.00 0.13 0.00 83 1009.8
20260506044544 33 110 2.0 8.0 0.00 0.13 0.00 82 1009.8
20260506044029 33 146 2.0 8.0 0.00 0.13 0.00 82 1009.8
20260506043534 33 148 1.0 6.0 0.00 0.13 0.00 82 1009.8
20260506043045 33 139 2.0 7.0 0.00 0.13 0.00 82 1009.7
20260506042530 33 162 2.0 7.0 0.00 0.13 0.00 81 1009.7
20260506042030 33 0 2.0 7.0 0.00 0.13 0.00 81 1009.8
20260506041545 33 154 2.0 7.0 0.00 0.13 0.00 82 1009.8
20260506041029 33 134 2.0 6.0 0.00 0.13 0.00 82 1009.8
20260506040533 33 148 1.0 6.0 0.00 0.13 0.00 82 1009.8
20260506040042 33 156 1.0 6.0 0.00 0.13 0.00 81 1009.7
20260506035530 33 132 2.0 7.0 0.00 0.13 0.00 81 1009.8
20260506035029 33 147 1.0 7.0 0.00 0.13 0.00 82 1009.7
20260506034548 32 207 1.0 7.0 0.00 0.13 0.00 83 1009.7
20260506034030 31 172 1.0 4.0 0.00 0.13 0.00 84 1009.7
20260506033533 31 136 0.0 4.0 0.00 0.13 0.00 84 1009.6